Hourly Data Report for June 29, 2021

VINELAND STATION RCS
ONTARIO
Current Station Operator: ECCC - MSC

43°11'00.000" N
79°24'00.000" W
79.20 m
6139148
71171
XVN

Download Data

Hourly Data (June 2021)
Hourly Data Report for June 29, 2021
TIME
LST
Temp Definition
°C
Dew Point Definition
°C
Rel Hum Definition
%
Precip. Amount Definition
mm

Wind Dir Definition
10's deg

Wind Spd Definition
km/h
Visibility Definition
km
Stn Press Definition
kPa
Hmdx Definition


Wind Chill Definition


Weather Definition


00:00 22.6 20.5 88 0.0 20 7   101.13 31   LegendNANA
01:00 22.9 20.9 89 0.0 24 9   101.13 31   LegendNANA
02:00 22.9 20.9 88 0.0 23 5   101.17 31   LegendNANA
03:00 22.5 21.0 91 0.0 19 6   101.16 31   LegendNANA
04:00 22.5 20.7 90 0.0 20 7   101.16 31   LegendNANA
05:00 21.9 20.6 92 0.0 23 3   101.20 30   LegendNANA
06:00 23.8 20.9 84 0.0 22 4   101.20 32   LegendNANA
07:00 25.4 21.6 79 0.0 20 7   101.17 34   LegendNANA
08:00 27.1 22.0 74 0.0 21 9   101.13 36   LegendNANA
09:00 29.5 22.6 67 0.0 22 13   101.10 39   LegendNANA
10:00 30.7 23.1 64 0.0 22 13   101.06 41   LegendNANA
11:00 31.8 22.9 59 0.0 21 17   101.05 42   LegendNANA
12:00 32.5 22.5 56 0.0 23 16   101.01 42   LegendNANA
13:00 33.0 22.7 55 0.0 21 19   100.93 43   LegendNANA
14:00 32.8 21.9 53 0.0 21 25   100.84 42   LegendNANA
15:00 33.1 21.4 50 0.0 22 25   100.86 42   LegendNANA
16:00 24.3 19.3 74 0.0 3 8   100.92 31   LegendNANA
17:00 26.1 20.4 71 0.0 27 5   100.96 34   LegendNANA
18:00 22.3 20.5 90 1.7 23 11   100.94 30   LegendNANA
19:00 23.3 20.8 86 0.0 24 9   100.89 32   LegendNANA
20:00 22.9 20.4 86 0.0 20 7   100.84 31   LegendNANA
21:00 23.3 20.1 82 0.0 21 9   100.88 31   LegendNANA
22:00 23.9 20.3 81 0.0 19 10   100.84 32   LegendNANA
23:00 23.4 20.1 82 0.0 21 21   100.82 31   LegendNANA

Notes on Data Quality.

Legend

  • E = Estimated
  • M = Missing
  • NA = Not Available*
  • [empty] = Indicates an unobserved value
Date modified: